| time (UTC) | temp F | wind direction | speed MPH | gust MPH | rain 1hr in | rain 24hr in | rain mn in | humidity % | barometer mb |
| 20260505041133 | 59 | 293 | 5.0 | 9.0 | 0.00 | 0.00 | 0.00 | 80 | |
| 20260505040154 | 59 | 293 | 5.0 | 11.0 | 0.00 | 0.00 | 0.00 | 79 | |
| 20260505035133 | 60 | 270 | 5.0 | 9.0 | 0.00 | 0.00 | 0.00 | 78 | |
| 20260505034133 | 60 | 293 | 7.0 | 11.0 | 0.00 | 0.00 | 0.00 | 77 | |
| 20260505033133 | 61 | 293 | 7.0 | 12.0 | 0.00 | 0.00 | 0.00 | 75 | |
| 20260505032133 | 62 | 293 | 5.0 | 11.0 | 0.00 | 0.00 | 0.00 | 74 | |
| 20260505031133 | 63 | 270 | 7.0 | 11.0 | 0.00 | 0.00 | 0.00 | 72 | |
| 20260505025153 | 65 | 293 | 6.0 | 11.0 | 0.00 | 0.00 | 0.00 | 69 | |
| 20260505024153 | 66 | 293 | 5.0 | 13.0 | 0.00 | 0.00 | 0.00 | 67 | |
| 20260505023133 | 66 | 270 | 8.0 | 15.0 | 0.00 | 0.00 | 0.00 | 66 | |
| 20260505022213 | 67 | 293 | 7.0 | 14.0 | 0.00 | 0.00 | 0.00 | 64 | |
| 20260505021133 | 69 | 293 | 5.0 | 11.0 | 0.00 | 0.00 | 0.00 | 62 | |
| 20260505020133 | 69 | 270 | 5.0 | 8.0 | 0.00 | 0.00 | 0.00 | 61 | |
| 20260505015134 | 70 | 270 | 6.0 | 13.0 | 0.00 | 0.00 | 0.00 | 59 | |
| 20260505014133 | 70 | 270 | 6.0 | 13.0 | 0.00 | 0.00 | 0.00 | 58 | |
| 20260505013133 | 71 | 293 | 6.0 | 14.0 | 0.00 | 0.00 | 0.00 | 59 | |
| 20260505012227 | 71 | 293 | 7.0 | 12.0 | 0.00 | 0.00 | 0.00 | 57 | |
| 20260505011133 | 72 | 270 | 8.0 | 16.0 | 0.00 | 0.00 | 0.00 | 56 | |
| 20260505010133 | 73 | 270 | 8.0 | 14.0 | 0.00 | 0.00 | 0.00 | 56 | |
| 20260505005133 | 73 | 270 | 7.0 | 14.0 | 0.00 | 0.00 | 0.00 | 55 | |
| 20260505004214 | 74 | 270 | 6.0 | 12.0 | 0.00 | 0.00 | 0.00 | 54 | |
| 20260505003133 | 75 | 270 | 6.0 | 12.0 | 0.00 | 0.00 | 0.00 | 53 | |
| 20260505002153 | 76 | 293 | 6.0 | 12.0 | 0.00 | 0.00 | 0.00 | 53 | |
| 20260505001134 | 76 | 270 | 8.0 | 14.0 | 0.00 | 0.00 | 0.00 | 52 | |
| 20260505000133 | 76 | 293 | 8.0 | 14.0 | 0.00 | 0.00 | 0.00 | 49 | |
| 20260504235133 | 78 | 270 | 4.0 | 9.0 | 0.00 | 0.00 | 0.00 | 50 | |
| 20260504234134 | 78 | 270 | 5.0 | 10.0 | 0.00 | 0.00 | 0.00 | 50 | |
| 20260504233133 | 78 | 293 | 5.0 | 11.0 | 0.00 | 0.00 | 0.00 | 49 | |
| 20260504232133 | 79 | 270 | 5.0 | 10.0 | 0.00 | 0.00 | 0.00 | 48 | |
| 20260504231133 | 79 | 225 | 2.0 | 9.0 | 0.00 | 0.00 | 0.00 | 48 | |
| 20260504230234 | 78 | 225 | 2.0 | 6.0 | 0.00 | 0.00 | 0.00 | 50 | |
| 20260504225134 | 78 | 225 | 2.0 | 6.0 | 0.00 | 0.00 | 0.00 | 52 | |
| 20260504224133 | 78 | 158 | 1.0 | 3.0 | 0.00 | 0.00 | 0.00 | 53 | |
| 20260504223133 | 77 | 158 | 2.0 | 4.0 | 0.00 | 0.00 | 0.00 | 54 | |
| 20260504222133 | 77 | 158 | 2.0 | 6.0 | 0.00 | 0.00 | 0.00 | 54 | |
| 20260504221133 | 77 | 158 | 2.0 | 6.0 | 0.00 | 0.00 | 0.00 | 54 | |
| 20260504220133 | 77 | 158 | 2.0 | 5.0 | 0.00 | 0.00 | 0.00 | 54 | |
| 20260504215153 | 76 | 135 | 2.0 | 6.0 | 0.00 | 0.00 | 0.00 | 55 | |
| 20260504214133 | 75 | 158 | 3.0 | 7.0 | 0.00 | 0.00 | 0.00 | 55 | |
| 20260504213133 | 76 | 158 | 3.0 | 7.0 | 0.00 | 0.00 | 0.00 | 55 | |
| 20260504212133 | 76 | 158 | 2.0 | 7.0 | 0.00 | 0.00 | 0.00 | 54 | |
| 20260504211133 | 76 | 158 | 3.0 | 7.0 | 0.00 | 0.00 | 0.00 | 56 | |
| 20260504210153 | 75 | 113 | 3.0 | 9.0 | 0.00 | 0.00 | 0.00 | 56 | |
| 20260504205133 | 74 | 158 | 4.0 | 9.0 | 0.00 | 0.00 | 0.00 | 57 | |
| 20260504204133 | 74 | 180 | 3.0 | 7.0 | 0.00 | 0.00 | 0.00 | 57 | |
| 20260504203154 | 74 | 158 | 4.0 | 8.0 | 0.00 | 0.00 | 0.00 | 58 | |
| 20260504202133 | 74 | 158 | 3.0 | 8.0 | 0.00 | 0.00 | 0.00 | 57 | |
| 20260504201153 | 73 | 158 | 3.0 | 8.0 | 0.00 | 0.00 | 0.00 | 58 | |
| 20260504200133 | 72 | 180 | 4.0 | 8.0 | 0.00 | 0.00 | 0.00 | 60 | |
| 20260504195133 | 72 | 158 | 3.0 | 7.0 | 0.00 | 0.00 | 0.00 | 59 | |
| 20260504194133 | 72 | 158 | 3.0 | 7.0 | 0.00 | 0.00 | 0.00 | 60 | |
| 20260504193134 | 72 | 158 | 2.0 | 7.0 | 0.00 | 0.00 | 0.00 | 60 | |
| 20260504192134 | 71 | 158 | 3.0 | 8.0 | 0.00 | 0.00 | 0.00 | 60 | |
| 20260504191133 | 70 | 158 | 3.0 | 6.0 | 0.00 | 0.00 | 0.00 | 63 | |
| 20260504190133 | 70 | 180 | 3.0 | 7.0 | 0.00 | 0.00 | 0.00 | 62 | |
| 20260504185134 | 69 | 180 | 4.0 | 7.0 | 0.00 | 0.00 | 0.00 | 63 | |
| 20260504184134 | 69 | 180 | 4.0 | 7.0 | 0.00 | 0.00 | 0.00 | 64 | |
| 20260504183154 | 69 | 158 | 4.0 | 9.0 | 0.00 | 0.00 | 0.00 | 64 | |
| 20260504182133 | 68 | 180 | 4.0 | 8.0 | 0.00 | 0.00 | 0.00 | 64 | |
| 20260504181133 | 69 | 158 | 2.0 | 7.0 | 0.00 | 0.00 | 0.00 | 64 | |
| 20260504180154 | 68 | 180 | 2.0 | 6.0 | 0.00 | 0.00 | 0.00 | 66 | |
| 20260504175133 | 68 | 248 | 1.0 | 4.0 | 0.00 | 0.00 | 0.00 | 66 | |
| 20260504174133 | 67 | 248 | 1.0 | 4.0 | 0.00 | 0.00 | 0.00 | 68 | |
| 20260504173153 | 65 | 135 | 1.0 | 4.0 | 0.00 | 0.00 | 0.00 | 70 | |
| 20260504172133 | 64 | 135 | 1.0 | 3.0 | 0.00 | 0.00 | 0.00 | 72 | |
| 20260504171154 | 63 | 225 | 1.0 | 4.0 | 0.00 | 0.00 | 0.00 | 75 | |
| 20260504170153 | 62 | 225 | 2.0 | 4.0 | 0.00 | 0.00 | 0.00 | 76 | |
| 20260504160133 | 59 | 270 | 2.0 | 6.0 | 0.00 | 0.00 | 0.00 | 81 | |
| 20260504151134 | 57 | 270 | 3.0 | 7.0 | 0.00 | 0.00 | 0.00 | 84 | |
| 20260504150133 | 57 | 270 | 3.0 | 6.0 | 0.00 | 0.00 | 0.00 | 84 | |
| 20260504141133 | 56 | 270 | 2.0 | 3.0 | 0.00 | 0.00 | 0.00 | 84 | |
| 20260504140153 | 56 | 270 | 2.0 | 5.0 | 0.00 | 0.00 | 0.00 | 83 | |
| 20260504130133 | 58 | 270 | 3.0 | 6.0 | 0.00 | 0.00 | 0.00 | 80 | |
| 20260504120133 | 59 | 248 | 2.0 | 6.0 | 0.00 | 0.00 | 0.00 | 76 | |
| 20260504110154 | 62 | 293 | 4.0 | 7.0 | 0.00 | 0.00 | 0.00 | 71 | |
| 20260504100134 | 63 | 315 | 5.0 | 9.0 | 0.00 | 0.00 | 0.00 | 70 | |
| 20260504090134 | 63 | 293 | 2.0 | 4.0 | 0.00 | 0.00 | 0.00 | 70 | |
| 20260504081133 | 66 | 0.0 | 0.0 | 0.00 | 0.00 | 0.00 | 65 | ||
| 20260504080134 | 68 | 0.0 | 0.0 | 0.00 | 0.00 | 0.00 | 59 | ||
| 20260504070137 | 72 | 293 | 2.0 | 4.0 | 0.00 | 0.00 | 0.00 | 51 | |
| 20260504060134 | 74 | 270 | 1.0 | 5.0 | 0.00 | 0.00 | 0.00 | 46 | |
| 20260504050133 | 77 | 0.0 | 3.0 | 0.00 | 0.00 | 0.00 | 42 |